{"data":{"norad_id":65750,"intl_designator":"2025-216S","name":"STARLINK-35165","alt_names":[],"object_type":"PAYLOAD","status":"ACTIVE","operator":null,"country":"US","launch_date":"2025-09-25","launch_site_code":"AFETR","launch_vehicle":null,"mission":null,"orbit_class":"UNKNOWN","rcs_meters":null,"size_class":null,"mass_kg":null,"dimensions":null,"purposes":["comms"],"wikipedia_slug":null,"has_3d_model":false,"image_url":null,"decayed_at":null,"tle_current":{"epoch":"2026-05-24T19:59:04.355520Z","epoch_age_seconds":100026,"freshness":"FRESH","line1":"1 65750U 25216S   26144.83268930  .00025871  00000+0  88264-3 0  9998","line2":"2 65750  53.1595 339.0579 0001162  97.0369 263.0764 15.30197094 38179","mean_motion":15.30197094,"eccentricity":0.0001162,"inclination_deg":53.1595,"raan_deg":339.0579,"arg_perigee_deg":97.0369,"mean_anomaly_deg":263.0764,"bstar":0.00088264,"rev_number":3817,"period_min":94.105524422072,"perigee_km":474.42738570653,"apogee_km":476.02010674396,"semimajor_km":6853.3607462252,"source":"CELESTRAK","updated_at":"2026-05-25T13:38:20.932713Z"}}}